Home > Weather > Liestal > Past weeks

Flag for Switzerland Weather for the Past 2 Weeks in Liestal, Basel-Land, Switzerland

Now
37 °F

Clear.


Feels Like: 37 °F
Forecast: 42 / 48 °F
Wind: No wind

Location: Bale-Mulhouse

Current Time: Apr 30, 2016 at 3:58:20 AM

Latest Report: Apr 30, 2016 at 2:30 AM


Visibility: 10 mi

Pressure: 30.04 "Hg

Humidity: 87%

Dew Point: 34 °F

Location of LiestalLocation

Historic Weather in Liestal — Graph

°F

Liestal Temperature Yesterday

Maximum temperature yesterday: 61 °F (at 5:00 PM)
Minimum temperature yesterday: 34 °F (at 3:00 AM)
Average temperature yesterday: 47 °F

High & Low Weather Summary for the Past Weeks

 TemperatureHumidityPressure
High70 °F (Apr 21, 4:00 PM)100% (Apr 16, 12:30 AM)30.33 "Hg (Apr 16, 12:30 AM)
Low30 °F (Apr 28, 5:30 AM)38% (Apr 21, 6:30 PM)29.65 "Hg (Apr 16, 8:00 PM)
Average48 °F77%29.97 "Hg
* Reported Apr 15 2:00 AM — Apr 30 2:30 AM, Liestal, Weather by CustomWeather, © 2016

Note: Actual official high and low records may vary slightly from our data, if they occured in-between our weather recording intervals... More about our weather records

Advertising

Liestal Weather History for the Previous 24 Hours

Scroll right to see more
 ConditionsComfort  
Time TempWeatherWind HumidityBarometerVisibility
2:30 AM
Sat, Apr 30
37 °FClear.No wind87%30.04 "Hg10 mi
1:30 AM39 °FClear.2 mph87%30.04 "Hg10 mi
1:00 AM39 °FClear.No wind87%30.04 "Hg10 mi
12:30 AM41 °FClear.No wind81%30.04 "Hg10 mi
12:00 AM43 °FClear.2 mph76%30.04 "Hg10 mi
11:30 PM
Fri, Apr 29
43 °FClear.2 mph76%30.04 "Hg10 mi
11:00 PM45 °FClear.6 mph76%30.04 "Hg10 mi
10:30 PM46 °FClear.7 mph71%30.04 "Hg10 mi
10:00 PM46 °FClear.5 mph71%30.04 "Hg10 mi
9:30 PM46 °FSunny.3 mph71%30.04 "Hg10 mi
9:00 PM48 °FSunny.3 mph66%30.01 "Hg10 mi
8:30 PM52 °FSunny.6 mph58%30.01 "Hg10 mi
8:00 PM55 °FSunny.5 mph47%30.01 "Hg10 mi
7:30 PM57 °FSunny.8 mph44%30.01 "Hg10 mi
7:00 PM59 °FPassing clouds.5 mph42%30.01 "HgN/A
6:30 PM59 °FPassing clouds.6 mph45%30.01 "HgN/A
6:00 PM61 °FPassing clouds.5 mph39%30.01 "HgN/A
5:30 PM61 °FPassing clouds.6 mph39%30.01 "HgN/A
5:00 PM61 °FPassing clouds.7 mph45%30.01 "HgN/A
4:30 PM59 °FSunny.5 mph45%30.01 "Hg10 mi
4:00 PM59 °FPassing clouds.6 mph42%30.04 "HgN/A
3:30 PM59 °FPassing clouds.7 mph42%30.04 "HgN/A
3:00 PM57 °FPassing clouds.5 mph41%30.04 "HgN/A
2:30 PM55 °FScattered clouds.3 mph41%30.04 "HgN/A
2:00 PM57 °FPartly sunny.3 mph44%30.04 "HgN/A
1:30 PM55 °FPartly sunny.3 mph51%30.04 "HgN/A
1:00 PM55 °FPartly sunny.3 mph47%30.07 "HgN/A
12:00 PM55 °FPartly sunny.5 mph47%30.07 "HgN/A
11:30 AM54 °FPartly sunny.5 mph51%30.07 "HgN/A
11:00 AM52 °FScattered clouds.2 mph54%30.07 "HgN/A
10:30 AM52 °FScattered clouds.2 mph54%30.09 "HgN/A
10:00 AM50 °FPassing clouds.2 mph54%30.09 "HgN/A
9:30 AM48 °FPassing clouds.2 mph66%30.09 "HgN/A
9:00 AM46 °FPassing clouds.3 mph71%30.09 "HgN/A
8:30 AM43 °FSunny.3 mph81%30.09 "Hg10 mi
8:00 AM39 °FSunny.3 mph93%30.07 "Hg10 mi
7:30 AM36 °FSunny.1 mph93%30.07 "Hg10 mi
7:00 AM36 °FClear.No wind93%30.07 "Hg10 mi
6:30 AM36 °FClear.No wind93%30.07 "Hg10 mi
6:00 AM36 °FClear.No wind93%30.07 "Hg10 mi
5:30 AM36 °FClear.No wind93%30.07 "Hg10 mi
4:30 AM34 °FClear.1 mph100%30.04 "Hg6 mi
4:00 AM34 °FClear.2 mph93%30.04 "Hg10 mi
3:30 AM34 °FClear.No wind100%30.04 "Hg10 mi
3:00 AM34 °FClear.2 mph93%30.04 "Hg10 mi
Weather by CustomWeather, © 2016

See weather overviewHow to use our weather pages